Grand Forks, ND

3:41 PM CST on November 17, 2017 (GMT -0600)
Grand Forks International

Weather History for KGFK - May, 2013

Change the Weather History Date:

Monday, May 20, 2013

  Actual Average Record
Temperature  
Mean Temperature 53 °F 56 °F  
Max Temperature 55 °F 69 °F 91 °F (1955)
Min Temperature 50 °F 43 °F 28 °F (1969)
Degree Days  
Heating Degree Days 12 9  
Month to date heating degree days 274 250  
Since 1 July heating degree days 9826 9328  
Cooling Degree Days 0 1  
Month to date cooling degree days 4 5  
Year to date cooling degree days 4 6  
Growing Degree Days 3 (Base 50)    
Moisture  
Dew Point 52 °F    
Average Humidity 97    
Maximum Humidity 100    
Minimum Humidity 93    
Precipitation  
Precipitation 1.42 in 0.10 in 1.57 in (1987)
Month to date precipitation 3.31 1.63  
Year to date precipitation 6.69 4.67  
Snow  
Snow 0.00 in 0.00 in T in (1963)
Month to date snowfall 0.0 0.1  
Since 1 July snowfall 50.2 47.4  
Snow Depth 0.00 in    
Sea Level Pressure  
Sea Level Pressure 29.56 in    
Wind  
Wind Speed 20 mph (NE)    
Max Wind Speed 30 mph    
Max Gust Speed 38 mph    
Visibility 5 miles    
Events Rain    
T = Trace of Precipitation, MM = Missing Value Source: NWS Daily Summary

Daily Weather History Graph

Daily Weather History Graph

Search for Another Location

Airport or City:

Trip Planner

Search our weather history database for the weather conditions in past years. The results will help you decide how hot, cold, wet, or windy it might be!

Date:

Astronomy

May. 20, 2013 Rise Set
Actual Time 5:43 AM CDT 9:07 PM CDT
Civil Twilight 5:06 AM CDT 9:45 PM CDT
Nautical Twilight 4:16 AM CDT 10:35 PM CDT
Astronomical Twilight 3:10 AM CDT 11:41 PM CDT
Moon 3:56 PM CDT (5/20) 3:02 AM CDT (5/20)
Length of Visible Light 16h 39m
Length of Day
15h 23m
Waxing Gibbous, 75% of the Moon is Illuminated
May 20
Waxing Gibbous
May 24
Full
May 31
Last Quarter
Jun 8
New
Jun 16
First Quarter

Hourly Weather History & Observations

Time (CDT) Temp. Dew Point Humidity Pressure Visibility Wind Dir Wind Speed Gust Speed Precip Events Conditions
12:08 AM 55.4 °F 53.6 °F 94% 29.62 in 10.0 mi East 23.0 mph 31.1 mph 0.02 in Rain Light Rain
12:24 AM 55.4 °F 53.6 °F 94% 29.61 in 10.0 mi ENE 20.7 mph 29.9 mph 0.02 in Rain Light Rain
12:53 AM 55.0 °F 53.1 °F 93% 29.62 in 10.0 mi ENE 17.3 mph 24.2 mph 0.02 in   Overcast
1:53 AM 55.0 °F 53.1 °F 93% 29.62 in 10.0 mi ENE 18.4 mph 28.8 mph 0.00 in Rain Light Rain
2:45 AM 53.6 °F 53.6 °F 100% 29.60 in 7.0 mi ENE 18.4 mph 25.3 mph 0.05 in Rain Rain
2:53 AM 54.0 °F 53.1 °F 97% 29.61 in 7.0 mi ENE 15.0 mph 24.2 mph 0.06 in Rain Rain
3:12 AM 53.6 °F 51.8 °F 94% 29.58 in 9.0 mi ENE 21.9 mph 26.5 mph 0.02 in Rain Rain
3:44 AM 53.6 °F 53.6 °F 100% 29.58 in 8.0 mi ENE 15.0 mph - 0.07 in Rain Light Rain
3:53 AM 53.1 °F 52.0 °F 96% 29.59 in 9.0 mi ENE 13.8 mph - 0.08 in Rain Light Rain
4:33 AM 53.6 °F 51.8 °F 94% 29.57 in 8.0 mi NE 13.8 mph 21.9 mph 0.04 in Rain Light Rain
4:53 AM 53.1 °F 53.1 °F 100% 29.57 in 5.0 mi NE 18.4 mph - 0.07 in Rain Rain
5:22 AM 53.6 °F 53.6 °F 100% 29.56 in 5.0 mi NE 13.8 mph - 0.03 in Rain Light Rain
5:35 AM 53.6 °F 53.6 °F 100% 29.56 in 2.5 mi NE 17.3 mph - 0.06 in Rain Light Rain
5:43 AM 53.6 °F 53.6 °F 100% 29.56 in 3.0 mi NE 18.4 mph - 0.07 in Rain Light Rain
5:53 AM 53.6 °F 53.6 °F 100% 29.56 in 3.0 mi NNE 15.0 mph 23.0 mph N/A Rain Light Rain
6:53 AM 53.6 °F 51.8 °F 94% 29.54 in 2.0 mi NE 18.4 mph - N/A Rain Rain
7:53 AM 53.1 °F 52.0 °F 96% 29.55 in 2.0 mi NE 18.4 mph 25.3 mph 0.06 in Rain Light Rain
8:26 AM 53.6 °F 53.6 °F 100% 29.53 in 1.5 mi NE 21.9 mph 26.5 mph 0.02 in Rain Light Rain
8:53 AM 54.0 °F 53.1 °F 97% 29.54 in 3.0 mi NE 16.1 mph - 0.05 in Rain Light Rain
9:02 AM 53.6 °F 53.6 °F 100% 29.53 in 2.0 mi ENE 23.0 mph 31.1 mph 0.02 in Rain Rain
9:33 AM 53.6 °F 53.6 °F 100% 29.52 in 3.0 mi ENE 18.4 mph 25.3 mph 0.05 in Rain Light Rain
9:53 AM 53.1 °F 52.0 °F 96% 29.53 in 9.0 mi ENE 19.6 mph - 0.06 in Rain Light Rain
10:53 AM 53.1 °F 52.0 °F 96% 29.52 in 6.0 mi ENE 19.6 mph 27.6 mph 0.06 in Rain Rain
11:53 AM 53.1 °F 52.0 °F 96% 29.52 in 3.0 mi ENE 21.9 mph 32.2 mph 0.11 in Rain Rain
12:53 PM 53.1 °F 52.0 °F 96% 29.52 in 3.0 mi ENE 19.6 mph 33.4 mph 0.07 in Rain Light Rain
1:48 PM 51.8 °F 51.8 °F 100% 29.51 in 3.0 mi NE 24.2 mph 33.4 mph 0.06 in Rain Rain
1:53 PM 52.0 °F 51.1 °F 97% 29.52 in 4.0 mi NE 24.2 mph 33.4 mph 0.06 in Rain Rain
2:53 PM 52.0 °F 51.1 °F 97% 29.53 in 4.0 mi NE 26.5 mph 34.5 mph 0.11 in Rain Rain
3:53 PM 52.0 °F 51.1 °F 97% 29.54 in 4.0 mi NE 23.0 mph 32.2 mph 0.09 in Rain Rain
4:20 PM 51.8 °F 51.8 °F 100% 29.53 in 5.0 mi NE 25.3 mph 29.9 mph 0.04 in Rain Rain
4:42 PM 51.8 °F 51.8 °F 100% 29.53 in 2.0 mi NE 20.7 mph 28.8 mph 0.08 in Rain Rain
4:53 PM 53.1 °F 51.1 °F 93% 29.54 in 2.0 mi NE 19.6 mph 29.9 mph 0.11 in Rain Rain
5:16 PM 53.6 °F 51.8 °F 94% 29.53 in 2.0 mi NE 21.9 mph 29.9 mph 0.03 in Rain Rain
5:46 PM 53.6 °F 51.8 °F 94% 29.53 in 5.0 mi NE 23.0 mph 31.1 mph 0.05 in Rain Light Rain
5:53 PM 53.1 °F 51.1 °F 93% 29.55 in 6.0 mi NE 24.2 mph 29.9 mph 0.05 in Rain Light Rain
6:06 PM 53.6 °F 51.8 °F 94% 29.54 in 5.0 mi NE 24.2 mph 31.1 mph 0.01 in Rain Light Rain
6:53 PM 53.1 °F 51.1 °F 93% 29.56 in 3.0 mi NE 23.0 mph 27.6 mph 0.12 in Rain Rain
7:53 PM 53.1 °F 50.0 °F 89% 29.57 in 10.0 mi NE 25.3 mph 33.4 mph 0.03 in   Overcast
8:49 PM 51.8 °F 50.0 °F 94% 29.58 in 1.5 mi ENE 23.0 mph 31.1 mph 0.02 in Rain Light Rain
8:53 PM 51.8 °F 50.0 °F 94% 29.58 in 1.5 mi ENE 19.6 mph 31.1 mph N/A Rain Rain
9:02 PM 51.8 °F 50.0 °F 94% 29.58 in 1.5 mi ENE 21.9 mph 29.9 mph 0.04 in Rain Rain
9:18 PM 51.8 °F 50.0 °F 94% 29.59 in 7.0 mi ENE 25.3 mph 33.4 mph 0.07 in Rain Light Rain
9:53 PM 52.0 °F 50.0 °F 93% 29.61 in 10.0 mi ENE 20.7 mph 31.1 mph 0.08 in Rain Light Rain
10:26 PM 51.8 °F 50.0 °F 94% 29.61 in 10.0 mi ENE 24.2 mph 32.2 mph 0.00 in Rain Light Rain
10:53 PM 52.0 °F 48.9 °F 89% 29.63 in 10.0 mi ENE 25.3 mph 29.9 mph 0.00 in   Overcast
11:53 PM 51.1 °F 48.0 °F 89% 29.65 in 10.0 mi ENE 19.6 mph 29.9 mph N/A   Overcast